RH
4 4 4 4 4 4 3 4 3 3 3 3 3 2 2 2 1 1 1 1 1 1 1 1 2 1 1 1 2 2 1 2 1 2 2 2 3 1 2 3 4 9 15 22 31 37 38 39 40 44 59 63 58 70 82 84 83 90 98 85 75 84 89 90 91 83 75 74 63 54 48 32 17 11 13 16 28 49 58 57 49 48 63 68 61 56 49 45
4 4 4 4 4 4 4 4 4 4 3 3 3 3 3 2 2 2 1 2 1 1 1 1 2 1 1 1 1 2 2 2 1 1 2 2 3 2 1 2 3 6 12 21 33 41 39 37 37 45 62 58 55 75 85 82 83 94 97 83 83 91 89 93 98 90 83 83 69 54 48 40 32 20 13 13 19 28 33 42 45 47 65 71 66 62 54 47
5 4 5 4 4 4 4 4 4 4 4 3 4 3 3 3 2 2 2 2 1 1 1 1 2 1 2 1 1 2 2 2 2 1 1 2 2 2 2 1 3 5 10 18 31 41 34 31 34 43 60 57 52 66 76 77 81 92 94 89 94 92 91 98 96 88 83 80 63 50 48 41 38 27 15 13 17 19 18 27 38 47 60 63 64 63 59 55
5 5 5 5 5 4 4 4 4 4 4 4 4 4 3 3 3 2 2 2 2 1 1 1 1 1 1 1 2 1 2 2 2 2 1 2 2 2 2 2 2 3 9 14 23 30 21 22 32 40 54 56 50 55 66 73 81 90 90 93 98 92 92 95 91 82 76 77 62 48 46 36 33 31 21 16 14 14 14 19 29 39 46 48 53 55 57 62
6 6 5 5 5 5 5 5 5 5 5 5 4 4 4 4 3 3 3 2 2 2 2 2 1 2 1 1 2 1 2 1 2 2 1 1 1 2 2 2 2 2 6 11 17 19 14 21 34 38 49 55 50 55 65 73 87 93 90 96 98 90 89 91 92 87 82 84 69 51 49 44 34 30 25 22 18 14 12 17 26 30 32 34 41 47 49 56
7 6 6 6 5 5 6 6 6 6 5 5 5 5 4 4 4 3 3 3 3 2 2 2 1 1 1 1 2 2 2 1 2 2 2 2 1 2 2 2 2 2 3 7 13 16 15 21 32 40 49 56 54 59 68 75 90 95 95 99 96 89 89 94 97 92 88 84 68 57 63 62 40 25 25 23 18 15 12 17 26 27 24 23 28 38 43 46
8 7 7 6 6 6 6 6 6 6 6 6 6 5 5 5 4 4 4 3 3 3 2 2 2 2 1 1 1 2 2 1 2 1 2 2 1 1 1 2 2 2 2 4 9 13 16 19 31 43 49 59 61 63 71 79 91 97 98 97 91 87 87 94 95 86 82 75 63 59 71 70 43 26 28 27 22 16 13 17 24 25 22 19 19 27 35 37
9 8 8 7 6 6 6 6 6 6 6 6 6 6 6 6 5 5 4 4 4 3 3 3 3 2 2 2 1 1 1 1 2 1 2 2 2 2 1 2 2 2 2 2 5 10 16 19 31 41 47 62 68 70 79 85 94 95 95 94 86 82 80 85 90 83 76 71 64 60 72 73 44 28 27 30 31 20 13 16 20 22 19 19 26 31 34 34
10 9 9 8 7 7 6 6 6 6 6 6 6 6 6 6 6 6 5 5 5 4 4 3 3 3 3 2 2 2 1 1 1 1 2 2 3 3 2 2 1 3 2 1 3 6 13 20 30 39 50 65 67 73 83 86 93 92 89 88 79 74 70 73 86 89 79 74 69 58 70 75 50 39 35 27 26 18 14 16 17 17 15 19 33 42 41 36
11 10 10 9 8 8 7 7 6 6 6 6 6 6 6 6 6 6 6 6 6 6 4 4 4 3 3 3 2 2 2 1 1 1 1 2 2 3 3 2 2 2 2 2 2 3 10 20 31 40 53 63 62 70 81 84 90 89 85 83 74 67 61 61 73 81 76 75 72 62 68 75 62 57 48 30 21 18 15 14 14 12 13 22 34 44 45 41
12 11 11 10 9 9 8 8 7 7 6 6 6 6 6 6 6 6 7 6 7 7 6 5 5 4 4 3 3 3 2 2 2 1 1 2 2 2 3 2 2 2 2 2 1 3 9 19 28 35 45 55 59 65 75 83 85 82 82 78 73 66 58 54 57 62 69 77 82 78 74 74 69 60 51 39 30 25 17 12 13 13 14 25 37 45 45 41
12 12 11 10 10 10 10 9 9 8 7 7 6 6 6 6 7 7 7 6 7 7 7 7 6 5 4 3 3 3 3 2 2 2 1 2 2 2 2 2 2 2 2 2 2 2 6 15 18 23 38 49 55 61 70 80 78 73 75 74 72 68 60 55 51 51 60 76 86 81 70 68 65 51 48 51 50 43 23 11 11 12 15 21 33 43 42 41
14 14 13 11 10 10 10 10 10 10 9 7 6 6 6 6 7 7 7 6 7 7 6 7 7 7 6 4 4 4 3 3 3 2 2 2 1 2 2 2 2 2 2 2 2 2 3 9 10 17 34 41 48 55 62 72 71 70 75 75 73 69 62 54 52 52 56 66 73 69 60 60 57 46 46 51 60 60 46 37 20 8 15 18 25 38 42 45
17 16 15 14 12 11 10 10 10 10 9 8 7 6 7 7 7 7 7 6 6 6 6 7 7 8 8 6 5 4 4 4 3 2 2 2 1 2 2 2 2 2 3 2 2 2 2 4 5 12 22 28 42 51 55 63 66 69 70 67 66 67 62 52 50 55 60 62 62 62 55 52 53 49 47 46 54 61 65 71 41 5 10 17 21 34 43 43
18 18 17 16 15 13 12 11 11 10 9 7 7 7 7 7 7 7 7 7 6 6 6 7 7 8 8 6 6 6 5 4 3 3 3 3 2 2 1 1 2 2 2 2 2 2 2 2 3 6 11 20 33 38 43 51 56 60 56 50 55 60 55 46 47 56 66 65 61 64 55 48 52 51 52 55 59 60 65 76 52 11 5 15 20 28 40 39
18 18 18 17 17 15 14 14 13 13 10 9 8 8 9 8 7 7 7 7 7 7 7 7 7 7 8 7 7 7 6 5 4 4 3 3 3 2 2 1 1 2 2 2 2 2 2 2 2 3 7 14 19 22 30 36 39 44 42 41 49 50 45 43 50 63 71 65 63 69 57 48 56 56 60 65 65 65 67 74 60 23 2 10 20 23 34 37
18 18 18 17 17 16 16 15 16 15 12 11 11 10 10 10 9 8 7 7 7 8 8 8 8 8 8 7 7 8 7 6 5 4 4 3 3 3 3 2 2 2 2 2 2 2 2 2 2 2 4 6 9 14 19 18 20 28 29 35 45 44 42 47 58 69 69 61 68 72 57 51 61 62 64 69 68 67 69 74 67 37 8 7 19 23 32 36
18 18 18 18 18 17 16 16 17 16 14 13 13 13 12 11 10 9 9 8 8 8 7 8 7 8 9 8 7 7 7 8 7 5 5 4 4 3 3 2 2 2 2 2 2 2 2 2 2 2 2 2 5 7 7 9 17 26 26 34 48 46 41 50 61 69 66 63 71 70 60 60 63 64 67 70 70 67 70 75 72 52 21 7 13 22 30 34
18 19 19 18 18 18 17 17 18 18 15 14 14 14 13 12 11 10 11 11 10 9 8 8 8 8 9 8 7 7 8 8 8 7 6 5 4 4 3 3 3 2 2 2 1 2 2 2 2 2 2 1 3 3 3 12 23 30 31 40 56 51 40 49 60 65 65 66 69 66 67 68 62 65 70 69 68 68 71 75 72 61 37 17 11 15 24 31
16 17 18 19 18 17 17 17 18 18 17 16 15 14 13 13 11 11 12 12 12 12 11 10 10 10 10 8 8 8 8 9 9 8 7 6 5 4 4 3 3 3 2 2 2 2 1 2 2 1 3 1 2 3 3 11 23 31 30 36 55 50 38 51 64 67 65 61 63 67 73 72 65 68 70 68 68 68 71 73 72 66 54 39 20 9 15 23
13 14 15 17 18 17 17 16 17 17 17 18 17 15 14 13 12 11 12 13 13 12 12 13 11 12 13 9 8 8 8 9 9 9 8 8 7 5 5 4 3 3 3 3 2 2 1 1 2 2 3 2 2 3 3 7 18 26 24 27 44 42 38 56 68 70 66 54 56 67 72 71 68 70 70 67 67 68 70 71 71 68 61 53 36 14 9 14
12 12 13 14 16 16 15 16 16 15 15 17 18 17 15 13 12 11 11 14 15 11 11 14 13 14 15 10 7 6 8 10 11 11 9 9 8 7 6 4 4 4 4 4 2 2 2 1 2 2 2 3 2 2 3 5 11 18 19 21 28 31 41 59 65 71 71 56 58 69 70 70 70 73 73 66 66 71 72 69 71 70 61 58 51 26 10 11
11 12 12 12 13 14 13 14 15 15 14 15 17 17 16 14 13 12 11 13 17 16 12 12 13 14 16 14 9 6 9 12 12 10 10 10 9 8 7 6 5 5 4 4 3 2 2 2 3 2 2 3 2 3 2 3 7 11 13 13 16 25 42 57 62 71 72 60 63 73 72 71 73 76 71 64 67 73 71 68 71 72 65 63 60 36 15 12
10 10 11 11 12 12 12 12 13 13 12 14 15 16 16 15 13 13 13 11 15 20 19 13 11 14 17 16 11 7 10 13 11 11 11 11 11 9 8 7 6 6 5 4 3 3 2 3 3 2 2 2 2 3 2 2 3 5 9 6 11 28 41 54 64 69 70 63 65 74 73 67 65 66 64 65 70 71 68 67 70 73 69 66 65 49 27 16
7 8 9 10 11 12 11 10 11 12 11 12 14 14 14 14 14 14 14 12 12 19 23 18 12 13 15 15 13 11 12 13 14 14 12 11 12 11 10 9 7 6 6 5 4 3 3 3 3 2 2 2 2 2 2 3 2 2 5 1 14 39 45 52 63 66 69 68 67 72 69 59 52 49 56 68 70 67 66 64 66 70 66 63 68 62 40 23
6 6 7 8 10 11 11 10 10 11 11 13 13 13 12 12 14 14 14 13 12 16 22 20 17 15 13 13 15 13 11 14 16 15 12 12 13 12 11 9 8 8 7 6 5 4 4 3 3 3 2 2 2 2 1 3 2 2 3 1 21 49 51 52 63 66 68 69 68 69 64 59 50 39 49 67 69 69 66 58 61 66 64 60 63 64 48 31
5 5 6 6 7 9 11 10 9 9 11 13 14 15 14 13 13 13 14 13 11 15 18 19 20 18 14 14 14 13 13 15 16 13 12 14 15 13 12 9 10 10 9 8 6 5 5 4 3 3 3 3 2 2 2 2 2 2 3 4 23 51 56 57 64 66 69 70 69 69 65 61 46 30 42 63 70 69 57 48 56 62 61 59 57 60 55 40
4 4 5 5 5 6 8 8 8 8 9 11 12 14 16 17 16 15 16 13 11 14 16 16 19 19 16 16 15 15 15 16 15 14 13 15 15 14 12 10 11 12 10 9 7 7 6 5 4 3 3 3 2 3 2 3 2 2 4 4 20 49 59 62 69 68 69 72 67 67 69 58 36 23 34 51 60 57 46 44 55 58 58 58 55 58 60 53
4 3 4 4 5 5 5 6 6 7 8 8 9 11 13 16 17 18 19 15 13 16 16 15 16 18 18 17 17 17 17 16 16 15 14 14 15 14 13 13 13 13 11 9 8 8 6 6 5 4 4 3 3 3 2 3 2 2 5 2 13 42 59 66 69 67 70 71 60 60 66 54 31 20 23 30 37 40 42 48 55 56 55 56 56 58 62 63
7 5 3 3 4 5 5 5 5 6 7 6 7 8 9 11 13 16 17 14 17 20 18 15 14 16 19 20 19 18 18 19 17 16 14 15 16 15 15 15 14 13 12 9 9 9 7 7 6 5 5 3 3 3 2 3 2 2 4 2 5 27 53 65 65 67 70 57 39 46 63 56 29 15 14 16 23 35 45 53 56 57 55 54 56 58 61 63
15 11 7 4 4 4 4 5 5 5 6 6 6 6 8 9 10 11 10 11 20 23 19 17 16 15 18 22 21 18 19 20 20 18 15 14 15 14 13 14 13 13 11 9 9 9 9 9 8 7 6 5 4 3 3 2 3 2 3 3 2 10 33 52 58 63 54 26 15 34 62 60 26 7 12 15 18 29 39 47 55 58 56 56 57 58 60 62
23 21 16 10 5 4 5 6 5 5 7 7 6 6 8 9 8 7 5 10 19 20 17 19 19 19 20 21 23 21 20 20 20 20 17 16 15 14 14 15 14 14 13 13 13 13 12 11 11 10 8 7 5 4 3 3 2 3 2 3 3 3 11 23 34 37 22 4 7 27 55 54 19 2 13 17 15 18 24 35 49 54 53 57 60 60 60 62
28 27 25 19 11 6 8 10 9 6 8 10 8 7 9 8 7 6 5 11 17 14 14 18 20 22 22 22 24 24 23 21 20 20 19 17 16 14 15 16 16 16 15 16 15 14 15 14 12 11 10 9 8 6 5 3 3 3 2 2 2 3 3 4 11 13 4 1 5 20 47 43 11 1 10 14 17 18 18 28 42 47 49 57 64 61 59 61
26 26 27 25 18 13 13 14 15 12 10 12 11 9 9 7 6 6 6 11 13 12 14 17 18 22 23 23 25 26 25 25 23 21 21 19 17 15 15 15 15 16 16 16 15 14 15 14 12 12 11 10 9 8 6 5 4 3 3 3 2 2 3 1 4 4 2 5 7 19 38 26 4 3 7 13 24 23 16 20 30 36 41 55 62 58 54 57
22 21 22 24 22 20 18 18 19 19 16 15 15 11 7 5 6 8 8 10 12 12 15 19 20 22 23 24 26 26 25 25 24 23 22 20 19 17 17 18 18 19 18 17 16 15 14 13 14 14 13 12 10 9 7 6 5 4 3 4 2 2 3 2 3 3 4 7 8 14 19 11 2 3 5 13 24 24 17 15 19 23 30 45 55 52 47 47
18 17 17 19 21 21 20 20 20 22 21 20 19 14 8 7 8 9 9 10 12 12 15 20 23 24 25 26 26 26 23 24 25 23 22 21 20 20 20 21 23 24 23 21 21 19 16 15 17 16 15 14 12 10 9 7 6 6 5 4 3 3 3 3 3 4 6 6 5 6 6 5 5 2 2 10 17 20 20 15 16 20 22 29 38 39 35 37
13 12 12 13 16 18 19 19 20 21 21 21 20 17 13 13 12 11 11 10 11 12 15 20 22 23 25 26 26 26 23 24 25 22 21 22 21 22 22 23 25 26 26 25 23 22 20 18 18 19 17 16 15 13 11 9 7 7 5 4 5 4 4 4 3 3 7 6 3 3 4 3 3 3 2 5 10 15 19 16 14 20 20 16 20 23 25 39
9 8 8 8 11 13 14 16 17 17 18 19 19 18 18 17 16 16 16 13 12 13 14 18 21 22 23 23 24 25 25 26 25 22 21 23 24 26 26 26 26 26 28 28 24 22 22 19 17 19 19 17 17 15 13 11 9 8 7 6 6 6 5 5 4 3 4 4 2 2 3 2 2 3 2 2 6 11 19 20 14 19 23 14 9 17 32 50
6 5 5 6 7 8 9 11 12 13 14 16 16 17 18 18 18 18 18 16 15 14 15 17 20 21 22 23 24 24 24 26 27 24 23 26 29 28 25 24 22 22 24 26 24 23 24 22 19 20 22 20 18 16 14 13 12 10 8 7 6 6 6 5 5 5 4 4 4 2 3 2 2 2 2 3 3 6 17 20 13 18 25 16 11 21 40 55
4 4 3 4 5 4 4 6 7 8 10 12 13 13 14 16 16 16 17 17 17 16 16 16 18 20 20 22 24 25 23 24 27 27 24 26 30 28 25 24 22 19 19 19 21 26 28 26 21 21 24 23 19 16 15 13 13 12 10 9 8 7 6 6 6 7 6 6 5 4 4 3 2 3 2 3 3 3 9 11 10 18 23 17 14 21 38 50
3 2 2 3 3 3 2 3 3 4 5 6 8 9 10 12 13 13 14 15 16 17 17 16 17 18 19 20 23 25 24 23 25 28 28 29 33 30 24 24 24 23 22 20 21 26 29 28 24 22 23 22 20 18 17 16 15 14 11 10 10 8 7 7 6 6 6 6 5 4 4 3 3 3 3 3 4 3 3 4 9 17 23 24 20 21 36 45
2 2 2 2 2 2 2 2 2 2 3 4 4 5 7 8 9 10 10 12 14 15 16 16 16 16 17 18 20 22 24 23 24 27 29 33 36 30 23 24 25 24 25 25 23 24 24 23 22 20 20 22 24 22 20 19 17 15 14 12 10 9 8 7 7 6 5 5 5 4 4 4 4 4 4 4 3 4 4 4 8 14 24 32 27 21 29 36
2 2 2 2 2 2 2 2 2 2 2 2 3 3 4 5 5 7 7 8 10 12 13 14 15 15 16 16 17 19 21 24 28 29 30 33 34 29 25 26 26 27 27 26 26 26 22 19 18 18 20 23 26 25 23 21 19 17 15 14 12 11 10 9 8 7 7 6 5 5 4 4 5 4 4 4 4 5 4 4 7 12 19 24 25 28 33 39
3 3 3 2 1 2 2 2 2 2 2 2 2 2 2 3 3 4 5 5 6 7 9 10 12 13 14 15 15 16 18 23 28 31 33 34 33 30 29 28 27 30 31 28 28 28 24 22 21 19 18 20 23 25 23 21 21 19 17 16 15 13 12 11 10 8 8 7 6 6 5 5 5 5 4 4 5 5 5 4 5 11 18 22 27 39 48 50
7 7 6 5 3 3 4 3 2 2 2 2 2 2 2 2 2 2 3 3 4 5 5 7 9 11 12 13 13 14 16 19 25 30 33 36 37 35 35 35 32 31 33 30 29 27 24 25 26 20 16 16 17 20 21 21 21 18 17 16 15 15 14 12 11 10 9 8 7 6 6 5 5 5 5 5 5 5 6 5 3 10 23 32 35 42 50 54
12 11 11 12 10 6 5 6 4 3 3 2 3 3 2 2 2 3 3 2 3 3 4 5 5 7 8 10 11 12 13 16 20 26 32 38 43 44 42 42 38 35 35 32 29 29 26 25 28 24 19 16 15 17 23 27 25 18 15 16 15 15 15 14 13 11 9 9 8 7 7 6 6 6 5 5 5 5 6 4 4 11 21 27 33 44 53 57
20 20 24 27 27 27 24 15 7 6 6 4 3 3 3 3 3 3 3 4 4 3 3 4 4 5 6 7 8 9 10 13 16 23 31 39 46 49 47 47 46 42 41 38 33 31 27 26 29 27 21 18 16 16 21 27 28 23 20 19 17 16 16 15 13 11 11 10 9 8 8 8 7 7 6 5 5 5 5 4 3 7 14 23 35 48 56 59
34 39 46 45 48 62 68 52 33 22 15 9 7 7 6 5 5 5 4 4 5 5 4 4 4 4 5 5 6 7 8 10 12 18 29 39 49 54 53 54 54 49 48 48 41 35 30 27 30 28 21 19 17 16 20 24 26 28 27 23 20 18 17 16 14 13 13 11 10 9 9 9 9 8 7 6 6 4 5 6 6 7 15 28 43 50 54 61
49 59 65 62 65 83 96 92 77 57 39 26 18 13 12 11 9 10 11 9 8 9 8 8 7 5 4 5 5 6 7 9 10 15 23 36 54 64 64 64 62 57 58 58 50 41 35 31 31 28 21 20 20 18 22 27 28 29 30 28 26 22 18 16 16 15 15 13 12 11 11 11 10 10 9 7 7 6 5 6 8 10 14 24 40 51 54 60
59 66 70 73 84 95 98 102 102 91 78 63 42 33 40 42 30 20 19 19 19 20 17 12 10 9 6 6 5 5 7 8 9 12 17 30 54 72 75 71 69 67 67 69 62 48 40 38 36 30 23 22 24 22 23 29 32 30 30 30 28 25 21 18 17 17 17 15 15 13 12 12 11 11 11 10 8 7 6 6 6 11 20 28 38 48 50 50
65 67 65 72 92 102 96 97 102 101 101 93 73 65 71 71 57 43 36 33 31 35 33 21 13 12 9 8 7 7 8 8 8 10 12 20 45 73 82 74 73 76 74 74 72 59 48 47 43 37 30 27 30 31 28 29 33 33 30 26 23 21 19 17 17 18 18 16 16 15 12 12 12 12 12 11 10 8 6 6 5 10 23 35 40 43 40 35
67 70 68 68 85 100 99 97 98 97 101 102 95 91 87 80 73 62 55 55 51 48 47 37 27 21 16 15 14 12 10 8 6 8 10 12 26 60 84 82 76 81 81 78 78 70 60 57 56 49 38 33 40 42 34 32 37 33 23 18 18 18 17 18 19 19 19 18 17 16 13 13 13 13 13 13 12 10 7 7 6 7 16 31 46 49 37 28
Wind_Speed
10 9 9 9 8 8 7 7 7 7 7 7 8 8 7 7 7 7 6 6 5 6 7 7 7 8 8 9 12 13 13 14 13 10 9 7 7 8 9 10 9 9 11 11 12 12 13 15 16 17 16 16 17 14 13 13 12 9 7 5 0 3 5 7 8 10 12 13 11 8 8 8 5 3 3 2 1 1 3 4 3 2 2 2 1 1 2 4
11 11 11 10 10 10 9 8 8 8 8 7 7 7 7 7 7 6 6 5 5 5 5 6 7 8 8 7 8 12 14 15 15 13 10 9 9 8 9 10 9 10 11 11 13 14 15 16 17 18 16 16 17 14 12 13 12 9 7 5 2 3 4 6 8 12 13 11 8 5 7 8 5 3 3 3 2 2 4 5 5 4 4 3 3 2 2 3
12 11 11 11 11 11 11 10 10 9 9 9 8 8 8 7 7 6 6 5 5 5 4 4 6 7 8 8 7 8 13 15 16 14 13 13 12 9 8 8 8 11 13 15 17 18 19 18 18 19 17 16 17 16 13 12 11 9 9 6 4 3 4 5 8 11 9 7 7 6 7 7 5 2 2 2 2 1 3 3 4 5 5 4 4 3 3 3
13 12 12 12 12 12 11 11 11 10 10 10 9 9 8 8 7 7 6 5 5 4 4 3 4 6 8 8 8 7 9 14 16 15 15 16 14 11 9 8 9 11 15 17 18 20 19 16 16 18 16 15 15 16 14 11 10 8 9 7 5 5 5 6 7 8 6 8 9 7 7 8 6 2 1 2 2 1 1 1 3 5 6 5 3 4 4 4
14 14 13 13 12 12 12 11 11 11 11 10 10 9 9 8 8 7 6 6 5 5 4 3 3 4 6 8 9 8 7 10 14 16 17 17 15 13 11 9 10 11 14 16 16 17 15 14 15 17 15 14 14 15 13 12 10 7 8 7 7 6 6 6 6 9 8 10 10 9 10 10 8 5 2 3 4 2 1 1 2 4 5 5 4 4 4 5
16 16 15 14 14 13 13 13 12 12 12 12 11 10 9 9 8 7 7 6 6 6 4 3 3 3 5 6 8 9 7 7 10 14 17 18 16 15 14 12 11 11 12 14 15 14 13 14 15 15 15 13 14 15 13 12 11 9 9 10 10 7 6 7 7 9 10 10 8 11 15 14 11 10 5 4 4 3 2 0 2 2 3 3 4 5 4 5
18 17 17 16 15 15 15 14 14 14 13 13 12 11 10 9 8 8 7 6 6 6 6 5 4 4 4 6 7 8 7 6 7 10 14 17 17 16 15 13 11 9 11 13 13 13 13 15 14 15 16 14 15 14 14 14 13 12 14 14 13 9 7 7 5 7 8 8 7 11 16 15 13 13 9 2 4 4 2 2 3 3 2 1 3 4 4 4
19 18 18 18 17 17 17 16 16 15 14 14 13 12 11 10 9 8 7 7 6 7 7 6 5 5 5 6 5 6 7 6 6 6 10 14 16 17 16 14 12 9 11 13 14 14 15 15 15 16 15 15 16 15 16 17 15 15 16 16 17 13 8 6 4 4 4 5 7 11 15 15 13 13 12 6 4 4 1 2 3 2 1 1 3 4 5 4
19 19 19 19 18 19 19 18 18 17 16 15 14 13 12 11 10 8 8 7 7 7 7 7 7 7 7 7 5 6 6 6 6 5 7 10 14 16 16 15 13 11 12 13 15 15 15 17 17 16 16 18 19 17 18 19 18 18 18 18 19 16 12 9 6 2 1 5 6 9 12 13 11 12 12 7 2 4 3 1 3 2 1 1 3 4 4 5
20 20 20 19 19 19 19 19 19 19 18 17 17 15 14 13 11 9 8 7 7 7 8 7 8 8 8 9 7 6 6 6 6 4 4 7 11 14 16 16 14 14 13 13 14 12 14 19 20 20 22 24 22 20 20 20 20 21 20 19 18 16 15 12 8 5 1 3 5 8 9 10 9 9 10 7 3 4 5 4 3 2 1 3 4 4 4 4
20 20 20 20 20 20 20 20 20 21 21 20 19 17 16 15 13 11 10 8 7 8 8 7 8 9 9 10 9 6 7 7 7 6 4 5 9 13 16 16 16 16 15 13 13 13 16 22 26 27 27 26 24 23 22 22 22 22 22 20 18 17 15 13 10 7 3 1 4 5 4 7 7 6 7 8 6 5 7 6 5 3 1 3 4 4 4 4
19 20 20 21 21 21 21 21 21 22 22 22 21 19 18 16 15 14 13 10 8 8 7 7 8 9 11 12 9 7 8 8 7 8 7 6 8 11 14 16 17 17 16 15 13 16 20 24 28 27 25 25 26 25 24 26 26 24 22 19 18 18 17 17 14 9 6 2 1 2 2 4 4 5 7 7 6 6 7 8 7 5 3 1 4 4 5 5
19 19 20 20 21 21 21 21 21 22 23 23 22 20 19 17 17 17 15 13 11 10 8 7 8 10 13 13 9 9 9 8 11 11 8 7 7 9 11 14 16 17 17 16 16 19 23 26 26 24 25 26 26 26 26 28 27 25 22 21 20 21 20 19 16 11 7 4 2 3 3 3 5 6 7 7 7 6 8 11 10 7 5 2 2 3 4 5
19 19 20 20 21 21 20 20 21 22 24 23 22 21 19 18 18 18 17 16 14 12 10 10 10 11 14 11 8 9 10 11 15 12 7 8 9 9 10 12 14 17 18 19 19 20 23 25 24 25 27 26 25 27 28 28 28 26 25 23 21 22 21 20 17 11 6 4 2 3 2 4 7 8 9 10 10 8 10 12 13 8 6 4 1 2 3 4
21 20 20 20 21 21 21 20 20 22 24 23 22 21 20 19 19 19 18 17 15 14 12 12 12 13 15 12 7 10 12 15 15 11 10 10 11 11 11 12 13 15 18 20 21 22 22 23 22 24 25 25 27 29 27 27 28 28 27 22 18 19 19 19 17 11 5 4 2 1 3 7 9 9 10 12 12 12 14 14 14 10 7 5 2 0 2 3
23 23 22 22 22 22 21 20 20 23 24 23 22 21 20 19 20 20 19 18 16 15 14 13 13 14 17 15 10 12 15 15 13 11 14 13 13 13 11 11 12 13 16 19 22 24 24 23 21 22 24 27 28 27 27 27 26 26 25 21 17 16 15 16 14 11 7 7 3 2 4 8 8 8 10 13 13 13 15 16 14 12 9 6 3 1 1 2
27 26 26 25 24 23 22 21 21 23 25 23 23 23 21 20 21 21 21 19 17 16 15 14 14 14 17 18 15 14 14 14 13 12 16 16 14 14 13 12 13 13 15 18 21 24 25 23 21 21 23 25 25 26 26 21 18 20 19 16 16 15 12 11 14 12 9 8 3 1 4 8 6 8 10 12 13 12 14 16 15 13 10 7 3 1 0 2
31 30 30 29 28 27 25 23 22 24 25 24 22 23 22 21 22 22 22 20 19 19 18 17 16 15 17 19 19 16 14 14 14 14 17 18 16 15 15 15 15 15 16 16 17 20 22 22 22 23 23 24 24 25 19 8 9 16 15 14 15 16 11 11 16 14 11 9 6 4 3 5 4 7 10 11 11 11 13 16 16 13 12 8 4 1 1 2
33 34 34 33 32 31 29 27 25 26 27 26 24 23 23 23 23 23 22 21 22 22 21 19 17 17 18 20 22 19 15 15 16 15 16 19 18 15 16 17 17 17 15 15 14 15 18 20 22 23 23 22 20 21 15 10 12 15 17 18 18 18 13 14 17 18 15 12 11 8 3 1 2 5 9 11 10 11 13 15 14 12 13 11 6 2 3 3
34 35 36 36 36 35 34 31 29 29 29 28 27 25 25 25 25 24 21 21 22 22 22 20 18 18 20 23 24 21 18 17 17 16 16 18 18 16 17 17 17 17 15 14 14 14 17 17 17 18 19 19 19 19 17 18 20 19 19 20 20 19 16 16 19 20 19 16 13 11 10 8 4 3 7 8 9 11 13 14 13 12 13 14 9 4 4 4
36 36 36 37 38 38 37 35 34 33 32 31 30 29 28 27 28 26 22 21 23 23 21 21 20 18 21 26 26 23 21 17 15 17 17 17 19 18 17 17 16 15 15 17 17 17 15 9 6 11 16 19 21 21 20 21 24 24 21 20 22 20 16 19 22 22 21 19 14 13 15 11 6 5 7 7 8 11 13 13 13 12 12 14 12 5 4 5
38 38 37 38 38 39 39 38 37 36 35 33 33 33 32 30 30 29 25 22 24 27 22 20 21 17 21 29 29 25 20 15 16 19 19 18 19 17 18 18 17 16 19 22 21 19 11 2 2 9 14 19 22 22 22 23 26 27 24 22 22 19 18 22 24 23 25 22 17 16 16 12 10 11 11 9 8 11 13 12 13 11 8 12 14 8 4 4
40 40 39 39 39 40 41 40 39 38 37 36 35 35 35 34 33 32 29 24 23 29 27 24 22 18 21 29 31 28 19 17 21 21 20 20 18 19 20 19 18 20 22 23 22 20 12 3 6 12 14 19 22 23 24 24 27 28 26 23 19 18 22 24 23 25 28 24 20 21 20 18 17 19 16 11 9 12 13 12 10 7 5 8 14 11 4 3
43 42 41 41 40 41 42 42 41 41 40 39 38 38 38 37 37 35 33 29 23 25 31 30 25 19 21 30 33 28 19 20 23 23 22 21 20 22 20 18 20 22 22 21 21 21 16 11 14 16 17 18 20 23 25 26 26 27 26 23 17 19 23 24 25 29 29 25 22 24 25 24 23 21 17 12 12 13 13 11 7 4 2 4 10 13 8 4
46 45 44 43 42 42 43 44 43 42 42 42 41 40 40 40 40 38 36 35 28 24 29 34 31 24 25 30 31 26 22 21 22 24 25 23 23 24 21 20 22 20 19 21 22 20 18 18 19 20 19 18 20 22 24 25 26 26 25 19 18 22 24 26 30 32 31 28 24 24 26 25 22 19 16 14 15 14 13 11 7 3 2 2 6 12 11 6
49 48 47 46 45 44 45 46 45 44 43 43 42 42 43 42 43 41 39 40 33 26 29 34 34 30 29 30 29 29 26 19 22 29 27 25 26 26 24 23 21 19 19 22 22 19 19 22 22 22 21 20 19 19 20 22 25 25 21 18 22 27 27 28 32 35 35 30 25 26 27 25 24 20 16 17 17 16 15 11 6 3 3 3 4 9 12 9
52 51 50 50 49 46 47 48 47 45 44 44 43 43 44 44 45 44 42 43 39 31 32 36 35 33 32 32 31 33 27 19 27 32 24 24 27 26 27 25 22 21 20 24 20 14 17 23 23 23 22 21 18 14 15 20 21 17 17 21 26 30 29 30 33 37 35 31 29 29 28 28 28 23 18 17 17 18 16 9 6 4 2 4 5 7 11 12
54 53 53 53 52 50 49 49 49 48 47 46 45 44 44 44 45 45 44 46 43 36 35 37 37 35 34 34 33 33 28 25 31 31 26 28 28 27 28 26 24 22 22 25 19 13 19 23 22 24 25 22 17 12 15 21 15 12 19 24 27 32 32 32 36 38 34 34 35 33 31 33 31 24 19 19 21 20 16 10 7 5 4 4 5 6 9 12
55 55 55 54 55 54 52 51 50 50 50 49 48 47 45 45 45 45 45 47 45 39 37 38 40 38 37 36 35 34 31 30 32 31 32 32 28 26 25 25 27 26 26 25 20 20 23 23 22 24 23 20 18 16 20 21 11 14 24 26 26 33 35 36 40 38 37 40 40 35 34 36 32 25 22 21 20 17 14 11 9 7 6 6 6 7 8 12
56 57 57 56 56 56 56 55 52 51 53 53 52 50 49 47 47 47 48 48 45 41 38 39 42 43 41 38 36 36 34 33 34 35 34 32 29 28 26 27 30 29 29 28 23 22 24 24 23 22 19 19 21 22 23 21 13 18 28 29 29 35 38 41 42 40 44 47 43 36 35 38 34 25 23 20 13 11 12 12 12 9 8 7 7 8 8 11
56 57 58 59 58 57 57 58 56 53 54 56 55 54 52 51 50 50 50 47 44 42 41 41 43 45 44 41 39 38 37 36 36 37 36 34 33 33 30 30 31 30 31 28 22 22 26 26 22 19 19 20 22 24 24 23 20 24 30 32 33 36 40 45 46 46 49 45 40 37 37 39 35 22 20 19 12 11 15 14 13 10 9 8 8 9 9 10
56 57 59 60 61 59 58 58 59 57 55 56 58 57 56 55 54 52 50 47 45 44 44 44 44 44 44 43 41 39 39 39 39 39 38 36 36 35 32 30 30 30 29 24 20 24 28 25 21 21 21 22 24 24 25 25 24 26 29 32 36 38 41 46 48 50 48 40 36 37 40 42 36 23 20 22 16 13 14 14 14 12 11 11 9 9 10 10
56 57 58 61 62 62 60 58 59 60 58 57 59 60 59 59 57 53 51 50 49 47 47 48 46 44 44 44 43 41 41 41 41 42 41 40 40 38 36 34 34 34 30 25 25 29 29 27 27 26 23 23 25 24 24 24 23 25 26 30 34 36 40 43 45 46 41 35 34 36 42 46 39 24 20 22 20 17 15 15 17 15 13 12 11 10 12 12
57 58 59 61 63 63 63 60 59 61 61 59 59 61 63 62 59 56 55 54 52 50 51 51 49 47 46 45 45 44 43 43 43 44 44 43 43 42 40 39 39 38 34 31 32 31 31 30 28 25 22 23 23 21 22 23 24 25 25 28 32 34 38 38 37 39 35 34 38 39 44 46 37 23 19 22 24 22 19 16 17 16 14 14 14 14 14 14
59 59 60 61 63 64 65 64 61 61 62 62 61 62 64 63 61 60 59 57 55 54 53 53 52 51 49 48 47 47 46 45 45 47 47 47 47 44 42 41 41 40 38 37 34 32 33 30 24 24 24 24 23 20 22 26 28 27 28 33 33 29 32 35 36 38 37 38 42 41 43 43 36 27 24 27 28 26 23 18 17 17 15 16 18 17 16 14
62 62 62 63 64 65 66 66 65 64 63 64 64 64 63 63 63 63 62 60 59 57 56 54 54 53 52 51 50 50 49 49 49 50 51 50 49 47 45 43 42 42 40 39 36 34 36 30 23 28 30 27 25 24 26 29 28 29 33 34 27 22 28 36 38 39 41 43 40 39 40 40 37 33 28 30 31 30 27 23 20 18 17 19 21 19 16 14
64 63 64 64 65 66 67 68 68 67 66 66 67 65 64 64 64 64 64 63 62 61 59 57 56 56 56 55 54 52 52 52 52 54 53 53 53 51 47 45 43 43 42 40 39 38 38 34 29 31 31 27 26 28 31 33 31 32 33 28 24 27 32 37 39 40 44 45 37 34 38 38 38 35 28 29 31 30 30 28 24 21 19 19 19 18 15 11
65 65 66 66 66 67 68 69 69 69 69 68 68 67 66 66 64 64 65 65 65 64 62 61 59 59 59 58 57 56 55 55 56 56 55 55 55 53 49 46 45 45 43 41 42 41 41 40 36 35 32 29 30 35 37 37 35 34 30 27 29 35 35 36 39 39 42 43 36 32 35 36 33 30 26 28 31 30 31 31 27 25 22 20 17 14 12 10
67 67 68 67 66 66 68 70 70 71 71 71 69 69 69 68 67 66 67 67 67 67 66 65 63 62 61 61 60 59 59 58 58 58 58 57 57 55 54 52 50 49 47 46 46 44 43 44 41 38 36 34 37 42 43 39 35 34 34 35 37 37 35 35 37 36 37 39 36 32 33 29 25 24 23 26 30 31 33 33 30 28 25 22 17 13 12 12
71 71 71 69 67 66 67 69 70 71 71 72 71 71 71 70 70 70 69 70 70 70 69 69 67 66 65 64 62 62 62 62 60 60 61 60 59 59 57 55 54 53 51 51 50 46 44 47 46 41 39 41 45 47 44 38 35 36 38 39 38 38 37 37 38 37 36 37 35 34 32 23 17 19 20 23 27 31 33 33 31 30 28 24 20 14 14 14
76 74 74 72 69 68 67 67 69 70 71 71 72 72 73 73 73 73 72 73 73 73 73 72 71 69 68 67 66 65 65 65 64 64 63 62 62 62 60 59 57 55 53 53 52 50 49 51 49 45 44 48 48 45 42 38 37 38 39 39 37 37 39 40 41 38 36 37 35 34 34 23 15 17 18 19 24 27 29 30 31 31 27 24 22 17 16 16
78 75 75 76 73 70 68 66 68 70 70 71 72 73 74 74 75 75 75 76 76 76 76 76 75 73 72 71 70 69 69 69 68 67 66 65 65 64 63 62 61 59 57 56 56 55 54 53 52 50 49 49 45 41 41 41 40 41 42 41 38 39 41 42 40 35 34 37 35 35 37 26 16 16 17 17 20 22 23 26 31 31 26 24 23 19 17 17
74 72 74 77 75 71 67 65 67 69 70 71 72 73 74 74 75 77 77 78 78 79 79 79 79 78 76 75 73 73 73 72 71 70 70 69 68 67 66 65 63 62 60 60 59 58 56 57 58 55 51 49 46 43 44 45 45 47 47 44 43 43 41 40 37 33 35 37 36 37 39 30 18 16 17 18 19 20 21 24 28 30 27 25 22 18 18 17
65 64 66 70 73 69 63 60 64 67 69 70 71 71 73 74 75 77 78 79 80 81 81 82 82 82 81 79 77 77 76 74 74 73 73 72 71 69 68 67 66 64 63 63 62 60 59 59 61 59 56 54 52 51 52 52 51 51 50 47 46 43 40 39 38 38 41 41 38 39 40 34 23 18 18 19 18 19 21 22 25 28 27 25 21 19 20 18
56 54 54 58 63 62 56 54 57 61 64 66 67 70 71 72 74 76 77 78 80 81 82 83 84 84 84 83 81 80 79 78 77 77 76 75 73 72 71 69 69 67 66 66 65 63 63 62 61 62 61 60 59 58 57 55 53 53 51 48 46 43 42 42 41 44 46 43 41 41 40 36 30 20 18 19 18 18 21 22 23 26 26 24 23 23 23 21
48 46 43 43 49 51 47 47 49 53 57 60 63 66 69 71 72 74 76 77 79 81 82 82 84 85 86 87 85 83 82 80 80 80 79 78 76 74 73 71 71 70 70 69 68 67 66 65 62 63 64 63 62 59 54 50 51 52 51 49 47 45 43 43 45 48 47 43 42 42 38 37 36 25 18 20 20 19 22 23 23 25 26 26 26 26 25 23
40 38 34 31 34 38 37 37 41 45 51 56 59 63 66 69 70 72 73 75 77 79 80 81 82 84 86 88 87 86 85 83 82 82 82 81 79 77 75 74 73 73 72 71 71 70 70 68 65 65 66 65 64 62 56 52 52 52 51 50 48 46 45 46 49 48 45 45 45 40 36 38 38 30 21 20 21 21 22 23 22 24 25 26 27 27 26 24
33 31 28 24 22 25 27 28 32 38 44 50 54 58 62 65 67 68 70 72 74 75 77 78 80 82 85 87 88 88 86 85 84 84 85 84 82 80 78 76 75 74 74 73 73 73 73 71 69 68 68 66 65 63 60 57 55 52 50 50 49 48 48 48 49 47 45 47 45 37 35 38 37 31 25 21 22 22 22 23 23 24 25 27 28 28 26 26
28 25 24 20 16 18 20 21 24 29 35 41 46 51 55 58 62 63 64 67 69 70 72 74 76 80 83 85 87 87 86 85 84 84 85 86 85 82 79 78 77 76 75 74 74 75 75 74 72 72 71 69 66 64 61 57 56 54 52 49 49 49 49 48 48 47 46 47 44 38 40 40 35 31 27 24 23 23 23 25 27 26 26 28 30 29 28 28
24 21 20 16 13 13 15 17 19 22 27 32 37 40 41 43 50 56 58 60 61 61 65 70 72 75 79 82 85 85 84 84 84 84 85 86 87 84 81 79 78 77 75 74 75 76 77 75 74 74 74 71 68 66 62 58 57 57 56 53 51 50 50 49 49 48 48 47 43 41 44 42 36 32 30 27 26 26 26 27 28 28 30 31 32 33 32 31
21 19 16 13 12 12 12 12 15 17 21 25 29 31 32 33 40 45 48 51 53 53 57 64 68 71 74 78 80 81 82 84 85 85 85 86 88 87 84 81 80 79 77 76 75 77 78 77 75 75 76 73 68 66 65 61 58 58 60 59 58 56 54 53 51 50 50 48 44 44 46 43 36 33 32 30 29 29 28 28 28 30 33 35 36 36 36 34
20 18 15 12 12 13 12 11 13 15 18 21 24 27 29 30 33 35 36 40 43 46 50 55 60 64 68 70 72 75 79 83 85 86 86 86 87 89 88 84 81 80 78 77 76 77 78 77 75 75 77 74 68 66 67 64 60 61 63 64 62 61 58 54 52 52 51 49 47 48 47 41 35 34 33 31 30 30 28 28 29 30 34 38 40 40 39 35
Wind_Direction
299 298 296 295 295 294 297 298 300 302 303 304 305 307 313 320 328 333 334 327 314 302 295 293 293 292 280 256 239 234 234 239 243 243 248 246 229 208 198 211 211 200 193 190 197 198 199 202 198 198 200 198 197 195 196 199 188 175 199 218 215 18 16 17 7 12 25 21 18 33 49 54 46 14 356 350 333 237 234 240 223 195 159 146 194 255 230 205
298 297 295 294 293 292 292 292 294 295 298 300 299 300 300 302 311 321 330 333 327 316 300 292 288 288 290 281 253 235 230 232 236 238 240 243 240 222 209 211 204 197 188 185 198 201 206 206 198 196 197 194 193 192 190 192 182 172 192 201 116 60 20 14 9 8 13 10 2 25 47 51 39 356 349 350 318 255 239 236 225 200 179 183 198 205 225 220
297 297 296 296 294 293 293 292 292 293 294 296 297 299 297 296 296 301 312 323 329 329 320 301 288 284 285 289 281 247 232 229 231 233 233 238 244 238 226 220 209 199 190 193 200 202 207 203 195 195 196 196 193 191 189 184 178 173 181 180 145 122 70 49 25 8 12 13 5 33 54 57 42 351 338 332 291 265 259 238 222 214 199 200 207 199 203 218
295 295 296 295 294 294 294 295 295 295 296 296 297 297 298 298 293 291 293 302 314 322 332 323 297 285 281 284 288 274 243 233 230 228 229 237 243 242 234 223 218 208 197 199 202 206 205 193 191 195 197 200 194 193 191 179 173 170 176 178 165 148 108 82 32 6 28 31 19 40 58 56 40 356 300 270 257 258 326 113 190 209 201 191 200 215 203 200
291 291 291 291 291 291 291 294 295 297 298 298 298 297 297 296 295 292 284 285 292 301 316 324 313 290 282 281 283 284 264 244 234 226 226 233 238 241 239 227 220 215 207 204 206 212 206 185 188 195 199 202 192 192 191 179 174 173 183 183 170 155 113 89 29 16 35 26 23 43 38 28 19 11 358 292 285 301 336 91 178 203 198 184 180 209 216 203
289 287 286 286 285 285 286 289 292 294 295 296 297 296 296 293 291 290 287 280 275 281 290 298 308 295 287 281 281 284 281 263 245 232 227 228 232 235 239 237 226 216 213 210 208 211 203 187 186 192 199 200 193 193 189 177 171 176 189 179 168 158 112 89 44 40 41 18 24 39 24 10 14 36 44 296 302 346 1 194 217 227 214 196 176 188 211 215
287 286 284 282 280 280 281 283 287 289 290 292 293 294 294 292 288 284 284 279 272 271 271 275 282 285 285 280 285 290 290 282 266 249 237 232 231 232 235 239 236 220 212 212 210 207 200 189 185 192 197 199 198 196 191 179 170 177 184 180 180 178 129 99 70 63 49 12 24 38 20 6 13 42 61 7 320 350 20 209 227 238 234 212 179 176 180 204
283 283 282 280 278 278 277 279 281 283 285 286 288 290 290 289 286 283 279 275 271 266 264 263 262 268 275 280 290 294 294 286 268 256 245 235 230 233 234 235 237 226 213 211 208 203 196 188 188 195 194 198 203 197 194 185 178 185 188 187 192 189 160 130 109 76 50 12 28 46 25 8 17 39 54 49 323 310 353 230 235 238 231 178 166 163 157 175
279 279 278 277 276 276 276 277 278 279 279 280 281 283 283 284 282 282 279 273 268 264 264 260 256 257 261 271 278 282 292 289 270 253 245 237 226 227 231 233 232 227 220 212 208 202 192 186 190 195 193 202 205 199 201 194 189 198 199 199 201 196 191 179 159 146 27 7 21 54 33 11 23 32 37 49 307 297 341 296 262 256 223 164 156 157 160 169
277 276 274 274 273 273 273 274 275 276 277 277 278 278 278 277 278 279 276 273 270 265 263 260 258 255 255 261 262 270 280 281 282 270 248 242 232 225 225 228 229 228 226 218 213 202 189 188 192 197 199 205 205 202 206 201 198 206 209 212 217 215 215 210 191 191 210 4 12 49 33 4 17 26 29 51 52 342 348 349 330 310 164 157 163 166 182 186
278 276 274 272 271 270 270 271 273 274 275 276 276 276 276 275 276 276 272 269 269 267 264 261 258 257 257 256 252 258 261 263 280 281 259 236 235 233 226 224 224 226 228 223 211 198 193 193 198 201 202 205 205 206 207 202 204 211 214 219 228 232 239 243 227 207 187 27 6 34 13 347 8 34 47 57 54 16 350 353 358 343 27 151 170 173 187 204
279 277 275 273 271 270 269 270 271 273 274 274 274 274 275 275 276 275 272 268 265 264 264 262 260 258 256 254 249 248 249 253 263 263 260 240 229 236 236 229 224 223 226 225 210 198 199 202 206 206 203 206 208 209 208 207 213 217 218 221 229 240 255 264 254 232 207 198 318 338 316 339 23 66 67 53 41 22 353 349 358 356 355 126 172 185 183 201
280 279 278 276 274 272 271 271 271 273 273 272 272 272 272 274 274 272 271 269 265 262 262 260 259 256 254 255 251 247 246 251 251 243 245 254 241 235 240 236 228 224 223 225 216 204 204 210 213 207 206 211 209 211 213 214 221 224 222 224 232 248 262 267 263 251 232 218 255 303 315 20 51 56 47 39 36 20 355 340 340 356 355 357 165 197 183 185
279 279 278 277 277 275 273 273 272 272 272 271 270 270 271 272 271 270 270 269 268 266 263 259 259 259 260 259 252 250 245 239 242 237 228 245 248 239 238 237 231 226 221 222 223 217 214 218 216 208 209 212 210 213 216 217 222 226 229 229 235 249 260 267 262 245 236 230 241 312 336 59 52 40 33 34 38 28 12 344 324 341 359 349 68 193 196 189
278 277 277 276 276 275 274 273 273 271 270 269 269 268 270 271 269 269 268 268 269 268 264 260 260 262 266 264 245 242 243 237 240 245 240 237 241 239 237 238 234 227 221 220 225 225 224 227 223 214 212 211 212 215 215 217 221 224 230 232 236 242 254 269 254 219 201 215 195 6 36 69 59 45 34 26 28 25 19 357 323 325 353 354 5 186 208 209
276 275 275 274 273 273 273 273 272 271 268 267 268 268 268 269 267 267 267 267 267 267 265 260 259 261 266 268 253 241 245 246 245 247 248 241 239 242 239 242 245 238 228 222 224 228 229 232 230 221 215 213 217 218 215 217 219 220 227 231 233 236 251 261 231 194 183 193 177 29 59 79 67 41 26 14 14 16 14 3 334 321 341 360 359 347 208 206
273 272 271 270 270 269 269 269 269 270 268 268 269 268 267 266 265 265 264 264 265 264 262 258 256 257 262 266 262 252 250 252 244 237 246 247 242 247 249 245 244 243 237 229 227 230 232 233 231 227 223 220 220 221 219 221 223 220 220 220 225 234 245 233 198 188 197 189 189 313 95 87 59 25 17 8 6 9 9 4 346 324 326 347 357 340 233 205
272 271 270 269 267 266 265 263 263 265 267 268 268 269 268 264 262 262 263 263 262 259 257 255 254 253 258 265 265 256 249 251 245 233 241 250 245 241 245 244 242 243 244 242 236 236 238 236 231 229 229 226 223 225 225 219 222 223 216 204 217 231 228 200 193 201 206 197 220 233 130 78 37 18 11 2 360 7 7 1 351 329 315 327 345 306 245 218
271 270 270 269 267 266 265 262 259 260 263 265 265 266 267 265 261 260 261 264 262 260 258 255 254 254 255 260 263 261 254 251 252 241 236 247 249 239 237 241 243 246 247 251 248 243 243 238 232 228 230 232 230 233 232 212 212 221 214 205 215 226 210 193 204 212 213 211 220 228 231 281 339 11 5 358 358 5 0 353 349 331 313 314 323 300 256 236
270 269 269 268 267 266 265 263 261 259 260 262 262 261 262 262 262 260 261 263 263 263 262 260 256 255 257 258 259 262 258 252 253 252 242 244 251 247 241 241 243 246 250 254 252 247 245 242 237 233 233 236 235 234 230 218 216 217 214 207 211 219 202 192 206 213 220 220 216 231 245 244 251 332 345 342 344 353 351 347 344 331 312 306 309 305 264 248
268 267 267 267 267 266 264 263 262 260 259 260 261 261 259 259 259 260 259 262 265 263 261 263 257 251 255 257 256 255 256 259 257 253 248 243 247 248 246 246 245 249 253 251 245 240 242 248 245 233 229 231 231 230 225 217 218 221 220 208 206 208 193 194 204 210 222 225 216 230 242 240 242 278 303 307 318 337 341 341 339 329 309 298 299 301 270 259
267 266 266 265 266 266 265 263 262 261 260 258 259 260 259 258 257 258 255 255 263 264 258 257 257 249 249 256 257 254 255 261 255 251 250 246 247 246 243 244 244 246 247 243 242 240 241 286 272 228 221 224 226 226 223 215 215 221 222 214 208 198 188 198 203 205 219 226 220 228 241 243 248 260 268 274 295 316 322 328 333 331 310 291 292 293 275 262
266 265 265 264 264 265 264 264 262 261 260 259 258 258 258 258 257 257 255 248 252 263 263 255 252 249 251 258 257 252 250 248 249 253 254 251 251 246 242 242 239 239 241 242 246 246 242 249 241 226 217 220 222 223 223 217 215 219 220 219 211 195 193 199 200 203 215 222 218 226 238 238 237 242 244 251 277 292 300 311 326 336 312 287 288 287 280 255
266 265 264 263 263 263 264 263 262 261 260 259 258 257 257 257 256 256 256 250 241 253 265 260 253 246 247 255 256 254 251 247 250 253 253 252 251 249 247 244 239 238 240 243 246 244 240 237 236 230 221 218 219 221 223 221 219 219 220 220 206 194 196 196 200 208 215 220 219 226 236 235 231 228 223 235 260 270 280 290 306 325 279 277 289 287 277 250
267 265 264 263 262 262 263 262 261 261 260 260 259 258 257 257 257 255 255 254 241 239 257 262 258 249 244 253 261 262 253 247 250 249 247 247 247 249 249 244 244 241 239 242 243 241 238 237 238 237 233 226 223 222 223 224 224 223 224 218 195 193 196 194 202 213 217 221 225 232 239 240 239 228 214 225 241 253 268 272 274 265 233 260 292 286 275 255
267 265 264 263 262 261 262 261 261 260 260 259 259 258 257 257 257 256 255 254 246 237 246 255 258 254 249 252 257 258 252 246 248 247 245 246 246 249 250 250 250 243 238 240 241 239 236 237 238 239 239 237 233 230 227 226 226 225 226 214 191 190 195 194 201 213 218 220 226 237 243 243 245 239 224 224 230 244 256 250 233 223 235 257 263 274 272 260
266 265 264 263 261 260 260 260 260 259 259 259 258 257 258 258 257 257 256 255 250 241 241 248 254 254 252 252 252 254 254 246 247 249 249 247 246 247 249 250 251 246 243 242 242 242 239 238 238 240 243 241 241 244 237 233 230 217 213 212 196 190 194 195 201 211 217 219 224 234 241 240 243 244 235 227 231 237 235 215 193 203 242 253 238 254 266 263
266 264 263 262 261 259 258 258 258 258 258 258 258 256 256 257 257 256 256 255 252 246 242 244 249 250 250 251 250 251 250 242 245 248 245 241 240 241 243 246 247 244 242 243 239 233 236 237 236 238 241 240 241 246 240 238 229 186 198 213 201 192 193 194 202 210 214 219 225 229 236 239 242 245 239 229 228 224 209 181 170 196 233 241 224 229 252 261
267 264 262 262 261 259 257 256 256 258 258 257 257 256 255 255 255 255 254 253 253 250 245 244 246 247 246 246 247 248 246 241 242 243 241 240 241 241 241 242 243 239 238 242 234 225 233 237 235 238 240 238 236 235 236 238 220 178 201 212 203 198 194 192 201 208 212 223 228 227 232 240 244 244 240 232 223 210 189 174 177 197 222 221 211 217 235 254
269 267 263 261 260 260 258 256 254 254 257 257 256 255 254 253 253 253 252 252 253 253 248 244 244 245 244 242 241 243 243 240 240 240 240 239 238 237 234 234 238 238 238 240 235 230 236 238 238 242 244 238 233 231 233 233 209 194 208 208 202 202 197 197 203 207 215 228 234 227 227 240 247 244 242 242 228 205 198 194 192 200 215 209 205 217 233 249
272 270 266 263 261 259 259 258 255 252 253 255 255 254 253 253 252 251 251 252 253 253 249 244 242 243 244 242 239 239 240 239 238 238 238 238 237 237 234 235 239 242 242 242 241 241 243 244 246 249 244 238 236 233 234 231 213 206 212 210 206 204 201 205 208 211 222 236 240 228 222 236 249 247 241 250 246 224 221 212 201 206 215 207 202 219 234 243
273 271 269 266 263 260 259 259 257 254 252 252 254 253 253 252 250 250 251 252 252 251 249 246 243 242 244 244 242 240 240 241 241 241 239 238 239 240 239 241 245 247 248 248 246 246 248 250 249 245 241 239 238 236 235 235 226 219 217 214 213 209 208 212 213 217 230 244 243 229 221 233 251 257 244 247 249 240 236 222 211 215 220 212 205 220 235 235
272 271 270 268 265 262 261 260 259 257 254 251 251 252 252 251 250 249 250 251 251 249 248 248 246 244 244 244 245 243 241 243 244 245 244 241 240 240 239 239 241 243 243 240 237 238 241 242 241 241 240 240 241 239 239 241 241 238 234 227 223 220 220 222 220 223 237 251 247 232 224 234 253 263 251 248 249 250 248 231 219 218 220 217 214 223 232 229
270 269 268 267 266 264 263 261 260 258 257 254 251 249 250 250 250 249 248 249 249 248 248 248 247 246 244 243 245 244 242 241 243 246 248 246 243 242 240 240 242 243 243 239 237 238 239 241 243 246 246 245 245 244 244 245 244 245 245 240 234 230 232 234 231 233 243 248 244 235 229 240 256 267 263 256 250 250 250 239 229 226 222 219 219 225 231 230
268 267 266 265 265 264 263 262 261 259 258 257 254 250 248 248 249 249 248 248 248 247 247 248 248 247 245 243 243 244 243 242 241 243 246 247 246 245 244 245 245 246 245 243 242 243 244 245 245 245 241 238 238 234 235 239 238 238 238 238 237 235 239 241 237 236 239 241 242 239 238 247 259 266 263 256 250 251 250 245 239 234 231 229 225 229 237 238
267 267 265 263 262 262 261 261 260 259 258 257 256 253 250 248 249 249 248 247 246 245 245 246 247 247 246 244 242 242 242 242 241 241 242 244 245 244 243 243 243 244 245 245 244 244 245 243 240 243 241 236 236 231 227 231 233 235 235 236 241 241 239 241 238 235 235 239 243 245 246 250 255 258 258 252 250 251 251 250 246 240 240 240 234 233 240 243
267 266 266 263 261 260 259 259 258 257 256 255 255 255 253 250 249 249 248 247 245 244 243 244 244 244 244 243 241 240 240 240 240 241 242 243 243 243 241 241 240 241 241 241 241 240 241 237 231 236 238 235 236 234 230 228 225 229 234 237 240 235 231 234 236 233 232 238 244 245 248 251 252 254 255 252 250 250 250 253 251 246 245 245 240 238 239 240
267 267 267 264 261 259 258 256 255 255 254 253 254 254 253 252 250 249 248 247 245 244 242 242 242 242 243 242 241 240 239 239 239 240 241 241 242 241 239 237 236 237 237 238 239 238 238 235 228 230 232 227 228 232 231 228 225 226 229 229 231 232 231 232 236 235 232 238 245 245 245 250 252 255 257 254 252 250 250 252 255 253 250 251 248 240 233 228
270 269 268 264 260 259 258 256 254 253 252 251 251 250 250 250 249 247 247 247 246 245 243 241 239 240 241 241 241 240 239 238 238 238 239 240 240 239 239 237 236 235 234 233 234 234 236 236 230 227 229 226 226 231 231 228 227 226 224 223 225 231 235 236 240 244 241 241 246 247 248 250 253 259 262 258 255 252 250 251 255 256 253 254 252 237 224 220
273 273 271 266 262 261 259 257 254 252 251 250 248 247 246 246 246 245 245 245 245 244 243 242 239 238 238 238 238 238 238 238 237 237 238 238 238 239 239 239 238 237 235 234 233 230 232 235 230 224 225 227 228 232 235 232 230 230 228 227 228 231 233 234 237 241 242 243 246 247 250 251 249 256 262 262 259 254 251 252 254 255 255 254 248 236 226 223
277 275 273 268 265 263 262 259 255 252 250 248 246 245 244 243 243 242 242 242 243 243 243 243 241 238 236 236 236 236 237 237 236 236 236 236 236 237 238 238 237 237 236 236 234 228 227 231 229 223 224 229 231 233 236 235 233 233 234 234 234 235 236 236 237 239 242 247 249 252 257 258 246 245 252 256 258 255 253 252 249 248 249 247 241 235 230 226
278 277 275 270 267 265 263 260 256 253 251 248 246 244 243 242 241 240 239 239 240 241 242 242 241 239 236 234 234 234 235 236 235 235 234 233 233 235 237 237 237 236 235 235 235 232 230 232 231 226 224 228 230 230 233 233 231 231 232 231 231 232 235 238 241 245 249 253 255 258 262 259 240 235 240 242 250 254 250 246 243 240 237 236 237 237 235 232
280 278 276 272 268 266 264 261 257 254 251 249 247 244 242 241 239 238 237 237 237 237 238 239 239 239 237 234 233 232 233 233 233 234 233 233 232 234 235 235 236 236 235 234 234 234 234 235 235 229 224 224 225 225 227 228 228 228 229 228 228 228 232 238 243 247 250 252 253 255 258 255 238 228 234 236 239 246 245 238 237 236 234 235 237 238 239 239
283 281 279 274 270 267 265 261 257 254 251 249 247 245 242 240 238 237 236 235 235 234 234 235 236 237 237 235 233 231 230 230 231 232 233 232 232 233 233 233 234 234 234 234 233 233 233 234 234 232 227 224 222 223 224 224 224 226 227 228 229 229 230 233 236 239 241 242 244 247 251 252 242 222 226 237 236 239 243 237 233 234 235 235 231 228 236 240
289 286 284 279 273 269 266 260 256 253 250 247 245 243 242 240 238 236 235 234 233 232 232 232 233 234 235 234 232 231 229 227 228 230 231 231 231 231 231 230 231 231 231 233 233 232 233 232 232 234 233 229 226 225 226 225 225 228 229 230 232 232 230 232 234 237 238 238 239 243 247 252 249 229 218 233 234 233 240 238 233 232 231 229 222 220 230 236
297 294 290 284 278 273 267 259 253 248 246 244 241 240 239 238 237 236 234 233 232 232 231 231 231 232 232 232 231 230 228 226 226 227 228 229 229 229 229 228 229 230 230 231 231 232 232 232 231 233 234 233 231 228 226 226 229 233 234 233 234 234 233 233 234 238 241 242 242 245 248 254 255 245 227 229 233 235 241 243 239 233 230 228 222 217 223 227
306 303 298 289 280 275 268 258 249 242 239 237 236 236 236 236 235 234 233 233 232 232 231 230 229 229 230 231 230 230 228 226 225 224 225 226 226 227 228 227 227 228 228 229 230 231 232 232 230 231 234 234 234 231 227 224 226 232 235 236 235 234 233 233 236 240 242 244 245 246 248 253 257 256 244 233 231 234 242 247 245 238 233 229 222 218 220 221
313 310 305 296 280 271 267 259 248 239 235 233 232 233 233 233 233 233 232 232 232 231 231 230 230 229 229 229 229 229 228 227 224 222 222 223 224 225 226 225 225 226 227 227 229 230 231 232 231 232 234 234 234 233 228 225 225 226 230 234 235 235 234 236 240 242 243 246 249 249 249 251 254 256 251 239 231 231 237 240 237 232 231 226 222 222 223 222
318 316 312 305 285 267 264 261 252 242 238 234 231 231 232 233 233 233 232 231 232 232 231 230 230 229 229 228 228 228 228 227 225 222 221 220 221 221 222 222 223 224 224 224 227 229 230 231 232 233 234 234 233 232 229 225 224 223 224 229 232 233 236 238 241 242 244 248 250 249 248 248 248 249 247 240 233 229 230 232 229 226 227 226 223 226 226 224
320 318 316 310 294 277 269 264 258 251 246 242 237 234 233 234 235 234 234 232 232 233 234 232 230 229 229 229 228 228 228 227 225 223 221 219 218 218 218 220 221 221 220 220 224 227 229 230 231 233 234 234 233 232 229 224 223 222 221 222 226 229 232 235 237 239 241 243 245 245 246 246 244 244 244 240 233 227 224 228 229 226 225 225 223 225 230 229
321 319 316 309 296 289 284 272 262 255 251 251 247 241 238 237 236 235 235 236 234 234 236 235 233 231 230 229 229 228 228 227 225 223 222 220 217 215 215 217 218 218 217 217 220 225 228 228 229 231 233 233 231 231 229 224 222 222 222 224 227 228 229 231 233 235 237 239 238 240 243 243 243 244 244 241 235 229 225 225 229 227 223 223 224 225 231 234
320 318 315 308 296 290 290 286 274 260 252 251 252 250 248 245 243 239 237 238 237 236 237 238 237 235 233 232 231 230 229 228 226 224 222 221 217 215 214 214 215 214 214 214 216 221 225 227 226 228 231 232 229 228 230 226 220 222 228 232 232 231 229 229 231 234 237 238 237 239 243 244 243 242 241 238 235 232 229 227 228 228 224 224 225 226 230 234